| time (UTC) | temp F | wind direction | speed MPH | gust MPH | rain 1hr in | rain 24hr in | rain mn in | humidity % | barometer mb |
| 20260906095424 | 69 | 234 | 0.0 | 0.0 | 0.00 | 0.00 | 0.00 | 99 | 1012.8 |
| 20260906095007 | 68 | 233 | 0.0 | 0.0 | 0.00 | 0.00 | 0.00 | 99 | 1012.8 |
| 20260906094536 | 68 | 246 | 0.0 | 0.0 | 0.00 | 0.00 | 0.00 | 99 | 1012.8 |
| 20260906094050 | 68 | 245 | 0.0 | 0.0 | 0.00 | 0.00 | 0.00 | 99 | 1012.8 |
| 20260906093633 | 68 | 242 | 0.0 | 0.0 | 0.00 | 0.00 | 0.00 | 99 | 1012.8 |
| 20260906093219 | 68 | 248 | 0.0 | 0.0 | 0.00 | 0.00 | 0.00 | 99 | 1012.8 |
| 20260906092800 | 68 | 233 | 0.0 | 0.0 | 0.00 | 0.00 | 0.00 | 99 | 1012.8 |
| 20260906092346 | 68 | 222 | 0.0 | 0.0 | 0.00 | 0.00 | 0.00 | 99 | 1012.8 |
| 20260906091914 | 68 | 242 | 0.0 | 0.0 | 0.00 | 0.00 | 0.00 | 99 | 1012.8 |
| 20260906091444 | 68 | 233 | 0.0 | 0.0 | 0.00 | 0.00 | 0.00 | 99 | 1012.8 |
| 20260906090105 | 68 | 235 | 0.0 | 0.0 | 0.00 | 0.00 | 0.00 | 99 | 1012.8 |
| 20260906085634 | 68 | 234 | 0.0 | 0.0 | 0.00 | 0.00 | 0.00 | 99 | 1012.8 |
| 20260906085217 | 68 | 234 | 0.0 | 0.0 | 0.00 | 0.00 | 0.00 | 99 | 1012.8 |
| 20260906084745 | 68 | 241 | 0.0 | 0.0 | 0.00 | 0.00 | 0.00 | 99 | 1012.8 |
| 20260906084316 | 68 | 234 | 0.0 | 0.0 | 0.00 | 0.00 | 0.00 | 99 | 1012.8 |
| 20260906083426 | 68 | 234 | 0.0 | 0.0 | 0.00 | 0.00 | 0.00 | 99 | 1013.2 |
| 20260906083009 | 68 | 232 | 0.0 | 0.0 | 0.00 | 0.00 | 0.00 | 99 | 1012.8 |
| 20260906082537 | 68 | 235 | 0.0 | 0.0 | 0.00 | 0.00 | 0.00 | 99 | 1013.2 |
| 20260906082107 | 68 | 239 | 0.0 | 0.0 | 0.00 | 0.00 | 0.00 | 99 | 1013.2 |
| 20260906081148 | 68 | 238 | 0.0 | 0.0 | 0.00 | 0.00 | 0.00 | 99 | 1013.2 |
| 20260906080717 | 68 | 238 | 0.0 | 0.0 | 0.00 | 0.00 | 0.00 | 99 | 1013.2 |
| 20260906080248 | 68 | 242 | 0.0 | 0.0 | 0.00 | 0.00 | 0.00 | 99 | 1012.8 |
| 20260906075830 | 68 | 234 | 0.0 | 0.0 | 0.00 | 0.00 | 0.00 | 99 | 1012.8 |
| 20260906075414 | 68 | 234 | 0.0 | 0.0 | 0.00 | 0.00 | 0.00 | 99 | 1012.8 |
| 20260906074941 | 68 | 235 | 0.0 | 0.0 | 0.00 | 0.00 | 0.00 | 99 | 1012.8 |
| 20260906074526 | 68 | 234 | 0.0 | 0.0 | 0.00 | 0.00 | 0.00 | 99 | 1012.8 |
| 20260906074109 | 68 | 247 | 0.0 | 0.0 | 0.00 | 0.00 | 0.00 | 99 | 1012.8 |
| 20260906073636 | 68 | 240 | 0.0 | 0.0 | 0.00 | 0.00 | 0.00 | 99 | 1012.8 |
| 20260906073221 | 68 | 247 | 0.0 | 0.0 | 0.00 | 0.00 | 0.00 | 99 | 1012.5 |
| 20260906072804 | 68 | 239 | 0.0 | 0.0 | 0.00 | 0.00 | 0.00 | 99 | 1012.5 |
| 20260906072331 | 68 | 220 | 0.0 | 0.0 | 0.00 | 0.00 | 0.00 | 99 | 1012.5 |
| 20260906071900 | 68 | 186 | 0.0 | 0.0 | 0.00 | 0.00 | 0.00 | 99 | 1012.5 |
| 20260906071444 | 68 | 231 | 0.0 | 0.0 | 0.00 | 0.00 | 0.00 | 99 | 1012.8 |
| 20260906070525 | 68 | 227 | 0.0 | 0.0 | 0.00 | 0.00 | 0.00 | 99 | 1012.5 |
| 20260906070056 | 68 | 235 | 0.0 | 0.0 | 0.00 | 0.00 | 0.00 | 99 | 1012.5 |
| 20260906065622 | 68 | 265 | 0.0 | 0.0 | 0.00 | 0.00 | 0.00 | 99 | 1012.5 |
| 20260906065206 | 68 | 235 | 0.0 | 0.0 | 0.00 | 0.00 | 0.00 | 99 | 1012.8 |
| 20260906064735 | 68 | 235 | 0.0 | 0.0 | 0.00 | 0.00 | 0.00 | 99 | 1012.5 |
| 20260906064301 | 68 | 237 | 0.0 | 0.0 | 0.00 | 0.00 | 0.00 | 99 | 1012.5 |
| 20260906063830 | 68 | 232 | 0.0 | 0.0 | 0.00 | 0.00 | 0.00 | 99 | 1012.8 |
| 20260906063412 | 68 | 229 | 0.0 | 0.0 | 0.00 | 0.00 | 0.00 | 99 | 1012.8 |
| 20260906062955 | 68 | 234 | 0.0 | 0.0 | 0.00 | 0.00 | 0.00 | 99 | 1012.8 |
| 20260906062540 | 68 | 235 | 0.0 | 0.0 | 0.00 | 0.00 | 0.00 | 99 | 1012.8 |
| 20260906062107 | 68 | 233 | 0.0 | 0.0 | 0.00 | 0.00 | 0.00 | 99 | 1012.8 |
| 20260906061635 | 68 | 233 | 0.0 | 0.0 | 0.00 | 0.00 | 0.00 | 99 | 1012.8 |
| 20260906061219 | 68 | 234 | 0.0 | 0.0 | 0.00 | 0.00 | 0.00 | 99 | 1012.8 |
| 20260906060801 | 68 | 234 | 0.0 | 0.0 | 0.00 | 0.00 | 0.00 | 99 | 1012.8 |
| 20260906060346 | 68 | 232 | 0.0 | 0.0 | 0.00 | 0.00 | 0.00 | 99 | 1013.2 |
| 20260906055929 | 68 | 235 | 0.0 | 0.0 | 0.00 | 0.00 | 0.00 | 99 | 1012.8 |
| 20260906055513 | 69 | 233 | 0.0 | 0.0 | 0.00 | 0.00 | 0.00 | 99 | 1012.8 |
| 20260906055059 | 69 | 229 | 0.0 | 0.0 | 0.00 | 0.00 | 0.00 | 99 | 1013.2 |
| 20260906054644 | 69 | 237 | 0.0 | 0.0 | 0.00 | 0.00 | 0.00 | 99 | 1012.8 |
| 20260906054157 | 69 | 235 | 0.0 | 0.0 | 0.00 | 0.00 | 0.00 | 99 | 1012.8 |
| 20260906053742 | 69 | 231 | 0.0 | 0.0 | 0.00 | 0.00 | 0.00 | 99 | 1012.8 |
| 20260906053312 | 69 | 236 | 0.0 | 0.0 | 0.00 | 0.00 | 0.00 | 99 | 1012.8 |
| 20260906052841 | 69 | 236 | 0.0 | 0.0 | 0.00 | 0.00 | 0.00 | 99 | 1012.8 |
| 20260906052410 | 69 | 236 | 0.0 | 0.0 | 0.00 | 0.00 | 0.00 | 99 | 1012.8 |
| 20260906051938 | 69 | 240 | 0.0 | 0.0 | 0.00 | 0.00 | 0.00 | 99 | 1012.8 |
| 20260906051507 | 69 | 234 | 0.0 | 0.0 | 0.00 | 0.00 | 0.00 | 99 | 1012.8 |
| 20260906051022 | 69 | 234 | 0.0 | 0.0 | 0.00 | 0.00 | 0.00 | 99 | 1013.2 |
| 20260906050607 | 70 | 229 | 0.0 | 0.0 | 0.00 | 0.00 | 0.00 | 99 | 1013.2 |
| 20260906050137 | 70 | 10 | 0.0 | 0.0 | 0.00 | 0.00 | 0.00 | 99 | 1012.8 |
| 20260906045719 | 70 | 254 | 0.0 | 0.0 | 0.00 | 0.00 | 0.00 | 99 | 1012.8 |
| 20260906045305 | 70 | 251 | 0.0 | 0.0 | 0.00 | 0.00 | 0.00 | 99 | 1012.5 |
| 20260906044847 | 70 | 237 | 0.0 | 0.0 | 0.00 | 0.00 | 0.00 | 99 | 1012.1 |
| 20260906044416 | 70 | 216 | 0.0 | 0.0 | 0.00 | 0.00 | 0.00 | 99 | 1012.8 |
| 20260906043514 | 70 | 238 | 0.0 | 0.0 | 0.00 | 0.00 | 0.00 | 99 | 1012.5 |
| 20260906043044 | 70 | 222 | 0.0 | 0.0 | 0.00 | 0.00 | 0.00 | 99 | 1012.8 |
| 20260906042613 | 70 | 225 | 0.0 | 0.0 | 0.00 | 0.00 | 0.00 | 99 | 1012.8 |
| 20260906042158 | 69 | 234 | 0.0 | 0.0 | 0.00 | 0.00 | 0.00 | 99 | 1012.8 |
| 20260906040823 | 69 | 231 | 0.0 | 0.0 | 0.00 | 0.00 | 0.00 | 99 | 1012.8 |
| 20260906040407 | 69 | 237 | 0.0 | 0.0 | 0.00 | 0.00 | 0.00 | 99 | 1012.8 |
| 20260906035520 | 70 | 233 | 0.0 | 0.0 | 0.00 | 0.00 | 0.26 | 99 | 1012.5 |
| 20260906035102 | 70 | 231 | 0.0 | 0.0 | 0.00 | 0.00 | 0.26 | 99 | 1012.5 |
| 20260906034649 | 70 | 231 | 0.0 | 0.0 | 0.00 | 0.00 | 0.26 | 99 | 1012.5 |
| 20260906033714 | 70 | 237 | 0.0 | 0.0 | 0.00 | 0.00 | 0.26 | 99 | 1012.8 |
| 20260906033257 | 70 | 235 | 0.0 | 0.0 | 0.00 | 0.00 | 0.26 | 99 | 1012.5 |
| 20260906031938 | 70 | 238 | 0.0 | 0.0 | 0.00 | 0.00 | 0.26 | 99 | 1012.8 |
| 20260906031451 | 70 | 230 | 0.0 | 0.0 | 0.00 | 0.00 | 0.26 | 99 | 1013.2 |
| 20260906031036 | 70 | 225 | 0.0 | 0.0 | 0.00 | 0.00 | 0.26 | 99 | 1013.2 |
| 20260906030547 | 70 | 209 | 0.0 | 0.0 | 0.00 | 0.00 | 0.26 | 99 | 1013.2 |
| 20260906030131 | 70 | 223 | 0.0 | 0.0 | 0.00 | 0.00 | 0.26 | 99 | 1013.2 |
| 20260906025700 | 70 | 231 | 0.0 | 0.0 | 0.00 | 0.00 | 0.26 | 99 | 1013.5 |
| 20260906024322 | 70 | 247 | 0.0 | 0.0 | 0.00 | 0.00 | 0.26 | 99 | 1013.2 |
| 20260906023851 | 70 | 231 | 0.0 | 0.0 | 0.00 | 0.00 | 0.26 | 99 | 1013.2 |
| 20260906023433 | 70 | 232 | 0.0 | 0.0 | 0.00 | 0.00 | 0.26 | 99 | 1013.5 |
| 20260906022100 | 70 | 239 | 0.0 | 0.0 | 0.00 | 0.00 | 0.26 | 99 | 1012.8 |
| 20260906021630 | 70 | 235 | 0.0 | 0.0 | 0.00 | 0.00 | 0.26 | 99 | 1013.5 |
| 20260906021213 | 70 | 226 | 0.0 | 0.0 | 0.00 | 0.00 | 0.26 | 99 | 1013.2 |
| 20260906020725 | 70 | 239 | 0.0 | 0.0 | 0.00 | 0.00 | 0.26 | 99 | 1013.2 |
| 20260906020253 | 70 | 233 | 0.0 | 0.0 | 0.00 | 0.00 | 0.26 | 99 | 1012.8 |
| 20260906015837 | 70 | 227 | 0.0 | 0.0 | 0.00 | 0.00 | 0.26 | 99 | 1013.2 |
| 20260906015405 | 70 | 230 | 0.0 | 0.0 | 0.00 | 0.00 | 0.26 | 99 | 1012.8 |
| 20260906014934 | 70 | 232 | 0.0 | 0.0 | 0.00 | 0.00 | 0.26 | 99 | 1012.8 |
| 20260906014517 | 70 | 238 | 0.0 | 0.0 | 0.00 | 0.00 | 0.26 | 99 | 1012.8 |
| 20260906014045 | 70 | 233 | 0.0 | 0.0 | 0.00 | 0.00 | 0.26 | 99 | 1012.8 |
| 20260906013628 | 70 | 233 | 0.0 | 0.0 | 0.00 | 0.00 | 0.26 | 99 | 1012.8 |
| 20260906013155 | 70 | 236 | 0.0 | 0.0 | 0.00 | 0.00 | 0.26 | 99 | 1012.8 |
| 20260906012738 | 71 | 231 | 0.0 | 0.0 | 0.00 | 0.00 | 0.26 | 99 | 1012.5 |
| 20260906012307 | 71 | 231 | 0.0 | 0.0 | 0.00 | 0.00 | 0.26 | 99 | 1012.1 |
| 20260906011835 | 71 | 231 | 0.0 | 0.0 | 0.00 | 0.00 | 0.26 | 99 | 1012.5 |
| 20260906010930 | 71 | 226 | 0.0 | 0.0 | 0.00 | 0.00 | 0.26 | 99 | 1012.1 |
| 20260906010445 | 71 | 233 | 0.0 | 0.0 | 0.00 | 0.00 | 0.26 | 99 | 1012.1 |
| 20260906003923 | 73 | 234 | 0.0 | 0.0 | 0.00 | 0.00 | 0.26 | 99 | 1012.1 |
| 20260906003506 | 73 | 234 | 0.0 | 0.0 | 0.00 | 0.00 | 0.26 | 99 | 1012.1 |
| 20260906002602 | 73 | 235 | 0.0 | 0.0 | 0.00 | 0.00 | 0.26 | 99 | 1012.1 |
| 20260906002147 | 73 | 248 | 0.0 | 0.0 | 0.00 | 0.00 | 0.26 | 99 | 1012.5 |
| 20260906001729 | 73 | 231 | 0.0 | 0.0 | 0.00 | 0.00 | 0.26 | 99 | 1012.5 |
| 20260906001257 | 74 | 226 | 0.0 | 0.0 | 0.00 | 0.00 | 0.26 | 99 | 1011.8 |
| 20260906000841 | 74 | 234 | 0.0 | 0.0 | 0.00 | 0.00 | 0.26 | 99 | 1012.5 |
| 20260906000411 | 74 | 231 | 0.0 | 0.0 | 0.00 | 0.00 | 0.26 | 99 | 1012.5 |
| 20260905235952 | 74 | 238 | 0.0 | 0.0 | 0.00 | 0.00 | 0.26 | 99 | 1012.5 |
| 20260905235536 | 74 | 239 | 0.0 | 0.0 | 0.00 | 0.00 | 0.26 | 99 | 1012.5 |
| 20260905235047 | 75 | 234 | 0.0 | 0.0 | 0.00 | 0.00 | 0.26 | 99 | 1012.5 |
| 20260905234631 | 75 | 232 | 0.0 | 0.0 | 0.00 | 0.00 | 0.26 | 99 | 1012.5 |
| 20260905234216 | 75 | 231 | 0.0 | 0.0 | 0.00 | 0.00 | 0.26 | 99 | 1012.5 |
| 20260905233801 | 75 | 231 | 0.0 | 0.0 | 0.00 | 0.00 | 0.26 | 99 | 1012.5 |
| 20260905233345 | 75 | 230 | 0.0 | 0.0 | 0.00 | 0.00 | 0.26 | 99 | 1012.5 |
| 20260905231547 | 76 | 232 | 0.0 | 0.0 | 0.00 | 0.00 | 0.26 | 98 | 1012.5 |
| 20260905231119 | 76 | 230 | 0.0 | 0.0 | 0.00 | 0.00 | 0.26 | 98 | 1012.5 |
| 20260905230219 | 76 | 240 | 0.0 | 0.0 | 0.00 | 0.00 | 0.26 | 98 | 1012.8 |
| 20260905225747 | 76 | 238 | 0.0 | 0.0 | 0.00 | 0.00 | 0.26 | 98 | 1012.8 |
| 20260905225317 | 77 | 233 | 0.0 | 0.0 | 0.00 | 0.00 | 0.26 | 98 | 1012.8 |
| 20260905224846 | 77 | 233 | 0.0 | 0.0 | 0.00 | 0.00 | 0.26 | 98 | 1012.5 |
| 20260905224429 | 77 | 234 | 0.0 | 0.0 | 0.00 | 0.00 | 0.26 | 97 | 1012.5 |
| 20260905224010 | 77 | 249 | 0.0 | 0.0 | 0.00 | 0.00 | 0.26 | 97 | 1012.5 |
| 20260905223539 | 77 | 237 | 0.0 | 0.0 | 0.00 | 0.00 | 0.26 | 97 | 1012.5 |
| 20260905223125 | 78 | 233 | 0.0 | 0.0 | 0.00 | 0.00 | 0.26 | 96 | 1012.5 |
| 20260905222710 | 78 | 229 | 0.0 | 0.0 | 0.00 | 0.00 | 0.26 | 96 | 1012.5 |
| 20260905222255 | 79 | 242 | 0.0 | 0.0 | 0.00 | 0.00 | 0.26 | 96 | 1012.1 |
| 20260905221839 | 80 | 232 | 0.0 | 0.0 | 0.00 | 0.00 | 0.26 | 95 | 1012.5 |
| 20260905220938 | 81 | 233 | 0.0 | 0.0 | 0.00 | 0.00 | 0.26 | 94 | 1012.5 |
| 20260905220520 | 82 | 251 | 0.0 | 0.0 | 0.00 | 0.00 | 0.26 | 92 | 1012.5 |
| 20260905220046 | 82 | 250 | 0.0 | 0.0 | 0.00 | 0.00 | 0.26 | 91 | 1012.1 |
| 20260905215630 | 82 | 262 | 0.0 | 0.0 | 0.00 | 0.00 | 0.26 | 89 | 1012.5 |
| 20260905215159 | 83 | 230 | 0.0 | 0.0 | 0.00 | 0.00 | 0.26 | 85 | 1012.5 |
| 20260905214312 | 83 | 233 | 0.0 | 0.0 | 0.00 | 0.00 | 0.26 | 86 | 1012.1 |
| 20260905212943 | 84 | 210 | 0.0 | 0.0 | 0.00 | 0.00 | 0.26 | 79 | 1012.1 |
| 20260905212044 | 86 | 216 | 0.0 | 0.0 | 0.00 | 0.00 | 0.26 | 78 | 1012.1 |
| 20260905211614 | 86 | 268 | 0.0 | 2.0 | 0.00 | 0.00 | 0.26 | 73 | 1012.1 |
| 20260905211158 | 86 | 253 | 0.0 | 0.0 | 0.00 | 0.00 | 0.26 | 75 | 1011.8 |
| 20260905210743 | 86 | 231 | 2.0 | 5.0 | 0.00 | 0.00 | 0.26 | 69 | 1011.8 |
| 20260905204925 | 84 | 233 | 4.0 | 5.0 | 0.00 | 0.00 | 0.26 | 78 | 1011.8 |
| 20260905204510 | 84 | 210 | 3.0 | 5.0 | 0.00 | 0.00 | 0.26 | 76 | 1011.8 |
| 20260905204053 | 84 | 239 | 3.0 | 5.0 | 0.00 | 0.00 | 0.26 | 80 | 1011.8 |
| 20260905203637 | 84 | 215 | 3.0 | 5.0 | 0.00 | 0.00 | 0.26 | 78 | 1011.8 |
| 20260905203223 | 84 | 234 | 3.0 | 5.0 | 0.00 | 0.00 | 0.26 | 79 | 1011.8 |
| 20260905202807 | 84 | 215 | 2.0 | 2.0 | 0.00 | 0.00 | 0.26 | 80 | 1011.8 |
| 20260905202353 | 85 | 246 | 1.0 | 2.0 | 0.00 | 0.00 | 0.26 | 85 | 1012.1 |
| 20260905201939 | 85 | 254 | 0.0 | 0.0 | 0.00 | 0.00 | 0.26 | 81 | 1012.1 |
| 20260905201524 | 86 | 250 | 0.0 | 0.0 | 0.00 | 0.00 | 0.26 | 77 | 1012.1 |
| 20260905201053 | 87 | 230 | 0.0 | 0.0 | 0.00 | 0.00 | 0.26 | 81 | 1012.1 |
| 20260905200154 | 88 | 285 | 2.0 | 5.0 | 0.00 | 0.00 | 0.26 | 72 | 1012.1 |
| 20260905195724 | 88 | 222 | 4.0 | 5.0 | 0.00 | 0.00 | 0.26 | 71 | 1012.1 |
| 20260905195307 | 88 | 253 | 1.0 | 2.0 | 0.00 | 0.00 | 0.26 | 73 | 1012.5 |
| 20260905194404 | 88 | 211 | 0.0 | 0.0 | 0.00 | 0.00 | 0.26 | 66 | 1012.1 |
| 20260905193500 | 87 | 259 | 0.0 | 0.0 | 0.00 | 0.00 | 0.26 | 69 | 1012.8 |
| 20260905193043 | 87 | 264 | 0.0 | 0.0 | 0.00 | 0.00 | 0.26 | 72 | 1012.5 |
| 20260905192613 | 87 | 241 | 0.0 | 0.0 | 0.00 | 0.00 | 0.26 | 74 | 1012.8 |
| 20260905192142 | 86 | 241 | 0.0 | 0.0 | 0.00 | 0.00 | 0.26 | 72 | 1012.5 |
| 20260905191726 | 86 | 252 | 0.0 | 0.0 | 0.00 | 0.00 | 0.26 | 71 | 1012.8 |
| 20260905191255 | 86 | 234 | 1.0 | 2.0 | 0.00 | 0.00 | 0.26 | 72 | 1012.8 |
| 20260905190840 | 86 | 259 | 0.0 | 0.0 | 0.00 | 0.00 | 0.26 | 71 | 1012.8 |
| 20260905190408 | 86 | 226 | 0.0 | 0.0 | 0.00 | 0.00 | 0.26 | 71 | 1012.8 |
| 20260905185938 | 86 | 248 | 0.0 | 0.0 | 0.00 | 0.00 | 0.26 | 72 | 1013.2 |
| 20260905185522 | 85 | 265 | 0.0 | 0.0 | 0.00 | 0.00 | 0.26 | 71 | 1013.5 |
| 20260905185051 | 85 | 255 | 0.0 | 0.0 | 0.00 | 0.00 | 0.26 | 70 | 1013.2 |
| 20260905184637 | 85 | 270 | 0.0 | 0.0 | 0.00 | 0.00 | 0.26 | 73 | 1013.5 |
| 20260905184222 | 84 | 6 | 0.0 | 2.0 | 0.00 | 0.00 | 0.26 | 75 | 1013.5 |
| 20260905183735 | 84 | 283 | 0.0 | 0.0 | 0.00 | 0.00 | 0.26 | 71 | 1013.5 |
| 20260905183319 | 84 | 241 | 0.0 | 0.0 | 0.00 | 0.00 | 0.26 | 75 | 1013.5 |
| 20260905182900 | 83 | 235 | 0.0 | 0.0 | 0.00 | 0.00 | 0.26 | 78 | 1013.5 |
| 20260905182014 | 82 | 272 | 0.0 | 0.0 | 0.00 | 0.00 | 0.26 | 76 | 1013.8 |
| 20260905181554 | 82 | 201 | 0.0 | 2.0 | 0.00 | 0.00 | 0.26 | 77 | 1013.8 |
| 20260905181123 | 82 | 76 | 0.0 | 0.0 | 0.00 | 0.00 | 0.26 | 75 | 1013.5 |
| 20260905180706 | 82 | 294 | 1.0 | 2.0 | 0.00 | 0.00 | 0.26 | 77 | 1013.5 |
| 20260905175804 | 82 | 333 | 2.0 | 5.0 | 0.00 | 0.00 | 0.26 | 82 | 1014.2 |
| 20260905175349 | 82 | 233 | 3.0 | 5.0 | 0.00 | 0.00 | 0.26 | 88 | 1014.2 |
| 20260905174934 | 82 | 217 | 0.0 | 0.0 | 0.00 | 0.00 | 0.26 | 85 | 1014.2 |
| 20260905174050 | 82 | 77 | 0.0 | 5.0 | 0.00 | 0.00 | 0.26 | 79 | 1014.2 |
| 20260905173634 | 81 | 257 | 0.0 | 2.0 | 0.00 | 0.00 | 0.26 | 80 | 1013.8 |
| 20260905173204 | 81 | 287 | 0.0 | 2.0 | 0.00 | 0.00 | 0.26 | 79 | 1013.8 |
| 20260905172747 | 80 | 253 | 1.0 | 2.0 | 0.00 | 0.00 | 0.26 | 82 | 1014.2 |
| 20260905171900 | 80 | 191 | 0.0 | 0.0 | 0.00 | 0.00 | 0.26 | 84 | 1014.2 |
| 20260905171444 | 80 | 94 | 2.0 | 5.0 | 0.00 | 0.00 | 0.26 | 89 | 1014.2 |
| 20260905170542 | 79 | 250 | 0.0 | 0.0 | 0.00 | 0.00 | 0.26 | 89 | 1014.2 |
| 20260905170127 | 79 | 182 | 3.0 | 5.0 | 0.00 | 0.00 | 0.26 | 86 | 1014.2 |
| 20260905165711 | 79 | 246 | 1.0 | 2.0 | 0.00 | 0.00 | 0.26 | 85 | 1014.2 |
| 20260905165253 | 79 | 202 | 0.0 | 0.0 | 0.00 | 0.00 | 0.26 | 88 | 1014.2 |
| 20260905164836 | 78 | 216 | 0.0 | 0.0 | 0.00 | 0.00 | 0.26 | 90 | 1014.5 |
| 20260905164422 | 78 | 207 | 4.0 | 5.0 | 0.00 | 0.00 | 0.26 | 89 | 1014.2 |
| 20260905163949 | 78 | 229 | 2.0 | 5.0 | 0.00 | 0.00 | 0.26 | 92 | 1014.5 |
| 20260905163518 | 77 | 202 | 0.0 | 2.0 | 0.00 | 0.00 | 0.26 | 91 | 1014.5 |
| 20260905163048 | 77 | 219 | 2.0 | 2.0 | 0.00 | 0.00 | 0.26 | 91 | 1014.5 |
| 20260905162632 | 76 | 300 | 1.0 | 2.0 | 0.00 | 0.00 | 0.26 | 87 | 1014.5 |
| 20260905162200 | 76 | 234 | 0.0 | 2.0 | 0.00 | 0.00 | 0.26 | 90 | 1014.9 |
| 20260905161743 | 75 | 152 | 0.0 | 2.0 | 0.00 | 0.00 | 0.26 | 92 | 1014.5 |
| 20260905161327 | 75 | 359 | 1.0 | 5.0 | 0.00 | 0.00 | 0.26 | 94 | 1014.5 |
| 20260905160856 | 75 | 283 | 0.0 | 0.0 | 0.00 | 0.00 | 0.26 | 96 | 1014.5 |
| 20260905160442 | 74 | 111 | 0.0 | 0.0 | 0.00 | 0.00 | 0.26 | 96 | 1014.2 |
| 20260905160011 | 74 | 56 | 2.0 | 5.0 | 0.00 | 0.00 | 0.26 | 96 | 1014.5 |
| 20260905155541 | 74 | 231 | 0.0 | 0.0 | 0.00 | 0.00 | 0.26 | 99 | 1014.5 |
| 20260905154209 | 74 | 283 | 0.0 | 2.0 | 0.00 | 0.00 | 0.26 | 98 | 1014.2 |
| 20260905153736 | 74 | 221 | 0.0 | 0.0 | 0.00 | 0.00 | 0.26 | 99 | 1013.8 |
| 20260905153318 | 73 | 141 | 1.0 | 5.0 | 0.00 | 0.00 | 0.26 | 99 | 1014.5 |
| 20260905152901 | 73 | 216 | 0.0 | 2.0 | 0.00 | 0.00 | 0.26 | 99 | 1014.9 |
| 20260905152444 | 73 | 301 | 2.0 | 5.0 | 0.00 | 0.00 | 0.26 | 99 | 1014.9 |
| 20260905152027 | 73 | 337 | 1.0 | 2.0 | 0.00 | 0.00 | 0.26 | 99 | 1015.2 |
| 20260905151555 | 73 | 290 | 0.0 | 0.0 | 0.00 | 0.00 | 0.26 | 99 | 1014.9 |
| 20260905151140 | 72 | 248 | 0.0 | 0.0 | 0.00 | 0.00 | 0.26 | 99 | 1014.9 |
| 20260905150722 | 72 | 37 | 1.0 | 2.0 | 0.00 | 0.00 | 0.26 | 99 | 1014.2 |
| 20260905150305 | 72 | 276 | 0.0 | 0.0 | 0.00 | 0.00 | 0.26 | 99 | 1014.2 |
| 20260905145849 | 72 | 269 | 0.0 | 0.0 | 0.00 | 0.00 | 0.26 | 99 | 1014.2 |
| 20260905145432 | 72 | 321 | 0.0 | 2.0 | 0.00 | 0.00 | 0.26 | 99 | 1014.2 |
| 20260905145017 | 72 | 229 | 0.0 | 0.0 | 0.00 | 0.00 | 0.26 | 99 | 1014.5 |
| 20260905144559 | 72 | 164 | 0.0 | 0.0 | 0.00 | 0.00 | 0.26 | 99 | 1014.5 |
| 20260905144144 | 73 | 262 | 0.0 | 0.0 | 0.00 | 0.00 | 0.26 | 99 | 1013.8 |
| 20260905143726 | 72 | 230 | 0.0 | 0.0 | 0.00 | 0.00 | 0.26 | 99 | 1014.2 |
| 20260905143256 | 72 | 153 | 0.0 | 0.0 | 0.00 | 0.00 | 0.26 | 99 | 1014.5 |
| 20260905142823 | 72 | 207 | 0.0 | 0.0 | 0.00 | 0.00 | 0.26 | 99 | 1014.5 |
| 20260905142407 | 72 | 169 | 0.0 | 0.0 | 0.00 | 0.00 | 0.26 | 99 | 1014.5 |
| 20260905141948 | 72 | 221 | 0.0 | 0.0 | 0.00 | 0.00 | 0.26 | 99 | 1014.9 |
| 20260905141533 | 71 | 228 | 0.0 | 0.0 | 0.00 | 0.00 | 0.26 | 99 | 1014.9 |
| 20260905140631 | 71 | 52 | 0.0 | 0.0 | 0.00 | 0.00 | 0.26 | 99 | 1015.2 |
| 20260905140215 | 71 | 224 | 0.0 | 0.0 | 0.00 | 0.00 | 0.26 | 99 | 1015.5 |
| 20260905135756 | 71 | 62 | 0.0 | 0.0 | 0.00 | 0.00 | 0.26 | 99 | 1015.5 |
| 20260905135338 | 71 | 182 | 0.0 | 0.0 | 0.00 | 0.00 | 0.26 | 99 | 1015.9 |
| 20260905134451 | 70 | 241 | 0.0 | 0.0 | 0.00 | 0.00 | 0.26 | 99 | 1016.2 |
| 20260905134033 | 70 | 274 | 0.0 | 0.0 | 0.00 | 0.00 | 0.26 | 99 | 1015.9 |
| 20260905133600 | 70 | 237 | 0.0 | 0.0 | 0.00 | 0.00 | 0.26 | 99 | 1015.5 |
| 20260905133129 | 70 | 244 | 0.0 | 0.0 | 0.00 | 0.00 | 0.26 | 99 | 1015.9 |
| 20260905132711 | 70 | 235 | 0.0 | 0.0 | 0.00 | 0.00 | 0.26 | 99 | 1015.5 |
| 20260905131339 | 70 | 238 | 0.0 | 0.0 | 0.00 | 0.00 | 0.26 | 99 | 1016.2 |
| 20260905130922 | 70 | 237 | 0.0 | 0.0 | 0.00 | 0.00 | 0.26 | 99 | 1015.9 |
| 20260905130504 | 70 | 235 | 0.0 | 0.0 | 0.00 | 0.00 | 0.26 | 99 | 1015.9 |
| 20260905130032 | 70 | 240 | 0.0 | 2.0 | 0.00 | 0.00 | 0.26 | 99 | 1015.5 |
| 20260905125613 | 70 | 237 | 0.0 | 2.0 | 0.00 | 0.00 | 0.26 | 99 | 1015.5 |
| 20260905124254 | 70 | 227 | 0.0 | 0.0 | 0.00 | 0.00 | 0.25 | 99 | 1015.5 |
| 20260905123408 | 70 | 153 | 0.0 | 2.0 | 0.00 | 0.00 | 0.19 | 99 | 1015.9 |
| 20260905122951 | 70 | 91 | 2.0 | 5.0 | 0.00 | 0.00 | 0.04 | 99 | 1016.2 |
| 20260905122045 | 70 | 218 | 0.0 | 0.0 | 0.00 | 0.00 | 0.02 | 99 | 1015.2 |
| 20260905121631 | 70 | 40 | 2.0 | 2.0 | 0.00 | 0.00 | 0.02 | 99 | 1014.9 |
| 20260905121200 | 70 | 257 | 0.0 | 0.0 | 0.00 | 0.00 | 0.02 | 99 | 1014.9 |
| 20260905120258 | 69 | 37 | 0.0 | 0.0 | 0.00 | 0.00 | 0.01 | 99 | 1014.5 |
| 20260905114922 | 68 | 211 | 5.0 | 7.0 | 0.00 | 0.00 | 0.00 | 99 | 1014.2 |
| 20260905114452 | 68 | 230 | 0.0 | 0.0 | 0.00 | 0.00 | 0.00 | 99 | 1013.8 |
| 20260905114038 | 68 | 231 | 0.0 | 0.0 | 0.00 | 0.00 | 0.00 | 99 | 1012.8 |
| 20260905113622 | 68 | 232 | 0.0 | 0.0 | 0.00 | 0.00 | 0.00 | 99 | 1012.8 |
| 20260905113136 | 68 | 234 | 0.0 | 0.0 | 0.00 | 0.00 | 0.00 | 99 | 1013.5 |
| 20260905112706 | 68 | 244 | 0.0 | 0.0 | 0.00 | 0.00 | 0.00 | 99 | 1013.2 |
| 20260905112251 | 68 | 234 | 0.0 | 0.0 | 0.00 | 0.00 | 0.00 | 99 | 1013.2 |
| 20260905111821 | 68 | 238 | 0.0 | 0.0 | 0.00 | 0.00 | 0.00 | 99 | 1013.2 |
| 20260905111406 | 68 | 234 | 0.0 | 0.0 | 0.00 | 0.00 | 0.00 | 99 | 1013.2 |
| 20260905110949 | 68 | 235 | 0.0 | 0.0 | 0.00 | 0.00 | 0.00 | 99 | 1013.2 |
| 20260905110519 | 68 | 238 | 0.0 | 0.0 | 0.00 | 0.00 | 0.00 | 99 | 1013.2 |
| 20260905110105 | 68 | 237 | 0.0 | 0.0 | 0.00 | 0.00 | 0.00 | 99 | 1012.8 |
| 20260905105634 | 68 | 227 | 0.0 | 0.0 | 0.00 | 0.00 | 0.00 | 99 | 1013.2 |
| 20260905105147 | 68 | 230 | 0.0 | 0.0 | 0.00 | 0.00 | 0.00 | 99 | 1013.2 |
| 20260905104731 | 68 | 223 | 0.0 | 0.0 | 0.00 | 0.00 | 0.00 | 99 | 1012.8 |
| 20260905104315 | 68 | 233 | 0.0 | 0.0 | 0.00 | 0.00 | 0.00 | 99 | 1012.8 |
| 20260905103859 | 68 | 242 | 0.0 | 0.0 | 0.00 | 0.00 | 0.00 | 99 | 1013.2 |
| 20260905103427 | 68 | 229 | 0.0 | 0.0 | 0.00 | 0.00 | 0.00 | 99 | 1013.5 |
| 20260905103012 | 68 | 234 | 0.0 | 0.0 | 0.00 | 0.00 | 0.00 | 99 | 1013.2 |
| 20260905102542 | 68 | 212 | 0.0 | 0.0 | 0.00 | 0.00 | 0.00 | 99 | 1012.8 |
| 20260905102127 | 68 | 221 | 0.0 | 0.0 | 0.00 | 0.00 | 0.00 | 99 | 1013.2 |
| 20260905101657 | 68 | 232 | 0.0 | 0.0 | 0.00 | 0.00 | 0.00 | 99 | 1013.2 |
| 20260905100256 | 68 | 219 | 0.0 | 0.0 | 0.00 | 0.00 | 0.00 | 99 | 1013.2 |
| 20260905095838 | 68 | 243 | 0.0 | 0.0 | 0.00 | 0.00 | 0.00 | 99 | 1013.2 |